FENGYUN 2D DEB, 33458

Orbit data source: Space-Track

FENGYUN 2D DEB, 33458 is space debris in GEO originally from a launch on Fri, 08 Dec 2006 UTC launched from the Xichang Space Center, China (XSC). Debris objects in space refer to the collection of defunct objects orbiting the Earth. Examples of debris include non-operational satellites, rocket bodies, and fragments generated from explosions, collisions, or faulty payload assembly.

Not visible in the next 10 days
Identifier
33458, 2006-053D
Orbit
GEO
Country
Flag of CNCN / PRC
Related business
Manufacturer
Unknown
Mission
Spacecraft
Bus & Motor
Unknown
Mass
Unknown
Launch date (UTC)
2006-12-08 (19 years ago)
Launch vehicle
Unknown
Launch site
Xichang Space Center, China (XSC)
Object type
Payload
Rocket body
Debris
Shape & HBR
Unknown shape, 1.1 m
Radar Cross Section
Medium (>0.1 m² and <1 m²)

Expand to show TLE details & history
Last TLE update: 1 day ago

TLE from 1 day ago
0 FENGYUN 2D DEB
1 33458U 06053D   25342.65298454 -.00000090  00000-0  00000-0 0  9996
2 33458  11.3221  38.7522 0021505 345.6907   2.5696  1.00244190 63467
Epoch: 2025-12-08T15:40Z
TLE epoch observation values (Epoch: 2025-12-08T15:40:17.864Z)
Latitude
-2.28445°
Longitude
74.52064°
Altitude
35,703.744 km
Speed
3.081 km/s
True Right ascension
01h 48m 58s
True Declination
-2° 16' 56"
Sunlit
Object was in daylight at epoch
Visualization orbit readout
Latitude
Unknown
Longitude
Unknown
Altitude
Unknown
Speed
Unknown
Apparent Right ascension
Unknown
Apparent Declination
Unknown
Sunlit
N/A
Visualization observer readout
Local Sidereal Time
19:54:37
Azimuth
Unknown
Elevation
Unknown
Doppler factor
Unknown
Orbital elements
Apogee altitude
35,886.037 km
Perigee altitude
35,704.648 km
Semi-major axis
42,173.479 km
Eccentricity
0.00215
Inclination
11.3221°
RAAN
38.7522°
Arg. of periapsis
345.6907°
True anomaly
2.58068°
Mean anomaly
2.5696°
Eccentric anomaly
2.57514°
Mean motion
0.2506 °/min
Orbital period
1,436.54 mins
BSTAR
0
Loading maneuver chart data...
Computing Atmospheric mass density...
Loading historical data...
Loading historical data...
Loading historical data...
Loading historical data...
Loading historical data...
Loading historical data...
Loading historical data...
Other satellites on launch #53 in the year 2006 (2006-12-08 UTC)

Documentation

Showing up to 5 results
|